Regional Weather Roundup
Issued by NWS

Home | Current Version | Previous Version | Text Only | Print | Product List | Glossary On
Versions: 1 2 3 4 5 6 7 8 9 10 11 12 13 14 15 16 17 18 19 20 21 22 23 24 25 26 27 28 29 30 31 32 33 34 35 36 37 38 39 40 41 42 43 44 45 46 47 48 49 50
000
ASUS43 KLOT 231121
RWRIL

ILLINOIS REGIONAL WEATHER ROUNDUP
NATIONAL WEATHER SERVICE CHICAGO/ROMEOVILLE IL
600 AM CDT SAT MAY 23 2015

NOTE: "FAIR" INDICATES FEW OR NO CLOUDS BELOW 12,000 FEET WITH NO
SIGNIFICANT WEATHER AND/OR OBSTRUCTIONS TO VISIBILITY.

* THESE STATIONS ARE NOT UNDER NWS QUALITY CONTROL. THEY ALSO MAY NOT
  REPORT WEATHER SUCH AS PRECIPITATION OR FOG.

ILZ001-002-007-009-015-016-024-231200-
NORTHWEST ILLINOIS

CITY           SKY/WX    TMP DP  RH WIND       PRES   REMARKS
MOLINE         CLOUDY    50  44  80 E5        30.28R
STERLING*      CLOUDY    55  39  54 E6        30.31R
SAVANNA*       MOCLDY    56  38  50 SE7       30.29R
$$

ILZ003-004-008-010-011-017-018-231200-
NORTH CENTRAL ILLINOIS

CITY           SKY/WX    TMP DP  RH WIND       PRES   REMARKS
ROCKFORD       MOCLDY    47  38  71 CALM      30.34R
FREEPORT*      MOCLDY    49  37  63 CALM      30.33R
ROCHELLE*      MOCLDY    54  37  52 SE7       30.32R
DE KALB*       MOCLDY    49  36  61 S8        30.33R
PERU*          CLOUDY    55  41  59 E3        30.32R
$$

ILZ005-006-012>014-019>023-231200-
NORTHEAST ILLINOIS

CITY           SKY/WX    TMP DP  RH WIND       PRES   REMARKS
CHICAGO-OHARE  PTCLDY    49  36  61 S3        30.32R
CHICAGO-MIDWAY PTCLDY    55  34  45 E3        30.33R
AURORA         MOCLDY    46  38  73 CALM      30.33R
LANSING*       CLEAR     48  35  61 CALM      30.33R
JOLIET*        MOCLDY    54  39  57 E3        30.32S
WAUKEGAN       CLEAR     42  36  79 CALM      30.33R
DUPAGE AIRPORT PTCLDY    43  38  82 N3        30.32R
KANKAKEE*      CLOUDY    53  38  58 CALM      30.34R
WHEELING       CLEAR     44  39  82 CALM      30.34R
MORRIS*        CLOUDY    55  38  54 CALM      30.30R
ROMEOVILLE*    PTCLDY    49  36  61 SE8       30.32S
NORTHERLY ISL    N/A     52  44  74 E2          N/A
$$

LMZ740>746-231200-
SOUTHERN LAKE MICHIGAN

STATION/POSITION SKY/WX   TEMP    WIND        PRES    VSBY  WAVE
                          AIR SEA DIR/SP/G                  HT/PER
                          (F)     (DEG/KT/KT) (MB)    (MI)  (FT/S)
SOUTHERN BUOY              44 38  190/  4/  4 1027.8R         0
HARRISON CRIB              54     150/ 11/ 13   N/A
BURNHAM HARBOR             53     110/  2/  4   N/A
CALUMET HARBOR             56     130/  6/  9   N/A
BURNS HARBOR               58     130/ 12/ 19 1027.1R
MICHIGAN CITY              54     120/ 10/ 12   N/A
MICHIGAN CITY 6N           54 51  160/  8/ 10   N/A           1/ 2
ST. JOSEPH                 53 53  160/ 10/ 12   N/A           1/ 2
$$

ILZ025>027-034>036-040-047-049-050-058-095>099-231200-
WEST-CENTRAL ILLINOIS

CITY           SKY/WX    TMP DP  RH WIND       PRES   REMARKS
QUINCY         CLEAR     55  50  83 E3        30.28R
GALESBURG*     CLEAR     53  49  86 S3        30.29R
MACOMB*        PTCLDY    53  51  95 CALM      30.32R
JACKSONVILLE*  PTCLDY    56  54  91 CALM      30.30R
PITTSFIELD*    PTCLDY    53  51  90 NE3       30.30R
$$

ILZ028>032-037-038-041>044-048-051>054-059>061-231200-
CENTRAL ILLINOIS

CITY           SKY/WX    TMP DP  RH WIND       PRES   REMARKS
PONTIAC        CLOUDY    55  42  60 SE7       30.32R
BLOOMINGTON    MOCLDY    58  43  57 SE3       30.32R
DECATUR        MOCLDY    59  51  75 S3        30.31R
PEORIA         PTCLDY    58  45  62 NE3       30.30R
LACON*         MOCLDY    55  42  63 CALM      30.30R
LINCOLN*       CLOUDY    58  52  81 CALM      30.30R
SPRINGFIELD    PTCLDY    56  52  86 CALM      30.30R
TAYLORVILLE    PTCLDY    54  52  94 SE3       30.31R
$$

ILZ033-039-045-046-055>057-062-063-231200-
EAST-CENTRAL ILLINOIS

CITY           SKY/WX    TMP DP  RH WIND       PRES   REMARKS
CHAMPAIGN      CLOUDY    59  47  64 CALM      30.31R
DANVILLE*      MOCLDY    56  42  57 E6        30.29R
RANTOUL*       CLOUDY    59  45  60 CALM      30.32R
MATTOON        MOCLDY    58  52  80 SW6       30.31R
PARIS*         CLOUDY    58  53  83 CALM      30.33R
$$

ILZ079-100>102-231200-
SOUTHWEST ILLINOIS

CITY           SKY/WX    TMP DP  RH WIND       PRES   REMARKS
ALTON          CLOUDY    60  60 100 CALM      30.31R
BELLEVILLE     MOCLDY    58  58  99 CALM      30.29R
CAHOKIA*       CLOUDY    59  56  89 CALM      30.30R
SPARTA*        CLOUDY    60  55  86 CALM      30.31S
$$

ILZ064>066-069>071-074>076-080>082-084>086-088>090-092>094-231200-
SOUTH-CENTRAL ILLINOIS

CITY           SKY/WX    TMP DP  RH WIND       PRES   REMARKS
CARBONDALE     CLOUDY    57  56  96 CALM      30.31R
CAIRO*         CLOUDY    59  58  97 NE5       30.31S
EFFINGHAM*     MOCLDY    58  53  84 CALM      30.33R
MARION         CLOUDY    61  57  88 CALM      30.32R
MT. VERNON     CLOUDY    55  50  82 CALM      30.33S
CENTRALIA*     PTCLDY    55  52  91 CALM      30.32R
SALEM*         MOCLDY    58  54  86 CALM      30.32S
METROPOLIS*    CLOUDY    58  58 100 CALM      30.31S
$$

ILZ067-068-072-073-078-083-087-091-231200-
SOUTHEAST ILLINOIS

CITY           SKY/WX    TMP DP  RH WIND       PRES   REMARKS
LAWRENCEVILLE  CLOUDY    60  54  80 CALM      30.33R
FLORA*         CLOUDY    58  55  90 CALM      30.33R
FAIRFIELD*     MOCLDY    58  55  92 CALM      30.32R
HARRISBURG*    MOCLDY    58  58 100 CALM      30.34R
ROBINSON*      CLOUDY    58  55  89 CALM      30.32S
CARMI*         CLOUDY    59  54  83 CALM      30.33R
$$

ABBREVIATIONS USED IN REMARKS
   TC - TEMPERATURE IN CELSIUS
  WCI - WIND CHILL INDEX
   HX - HEAT INDEX
  VSB - VISIBILITY
$$




USA.gov is the U.S. government's official web portal to all federal, state and local government web resources and services.